Location: Anumalkud?ru
(16.4847°N, 80.6636°E)
Time: 22:35:29
(UTC+00:00)

Lacrosse 5 rocket - Pass Details

Date: 11 April 2026
Orbit: 390 x 473 km, 57.0° (Epoch: 9 May)

Event Time Altitude Azimuth Distance (km) Brightness Sun altitude
Exits shadow 23:27:57 - 324° (NW) 2,052 4.0 -14.1°
Reaches altitude 10° 23:29:19 10° 323° (NW) 1,493 3.3 -13.8°
Maximum altitude 23:32:38 69° 239° (WSW) 458 0.7 -13.0°
Drops below altitude 10° 23:36:04 10° 155° (SSE) 1,542 3.8 -12.2°
Sets 23:38:13 0° 153° (SSE) 2,427 4.8 -11.7°
